Regional Weather Roundup
Issued by NWS Tiyan, Guam

Home | Current Version | Previous Version | Text Only | Print | Product List | Glossary On
Versions: 1 2 3 4 5 6 7 8 9 10 11 12 13 14 15 16 17 18 19 20 21 22 23 24 25 26 27 28 29 30 31 32 33 34 35 36 37 38 39 40 41 42 43 44 45 46 47 48 49 50
000
ASGM40 PGUM 171012
RWRGUM
WEATHER ROUNDUP FOR THE MARIANAS
NATIONAL WEATHER SERVICE TIYAN GU
800 PM CHST THU AUG 17 2017

GUZ001>004-171100-
MARIANA ISLANDS-

CITY           SKY/WX    TMP DP  RH WIND       PRES   REMARKS
GUAM AIRPORT   CLEAR     82  79  89 E5        29.82R HX  93
ANDERSEN AFB   PTCLDY    81  77  89 SE5       29.87R
ROTA AIRPORT   MOCLDY    81  75  83 E10       29.81R
TINIAN AP      MOCLDY    81  75  83 E7        29.80R
SAIPAN AP      PTCLDY    84  75  74 E6        29.81R HX  92

$$




USA.gov is the U.S. government's official web portal to all federal, state and local government web resources and services.